Location: Bacea
(45.9500°N, 22.6667°E)
Time: 11:58:29
(UTC+00:00)

Cosmos 489 Rocket - Pass Details

Date: 26 May 2022
Orbit: 952 x 983 km, 74.0° (Epoch: 03 July)

Event Time Altitude Azimuth Distance (km) Brightness Sun altitude
Rises 23:57:54 0° 347° (NNW) 3,642 8.4 -19.8°
Reaches altitude 10° 00:02:19 10° 16° (NNE) 2,697 8.0 -19.5°
Maximum altitude 00:04:48 12° 40° (NE) 2,524 7.7 -19.3°
Drops below altitude 10° 00:07:17 10° 64° (ENE) 2,699 7.5 -19.2°
Sets 00:11:42 0° 93° (E) 3,648 7.8 -18.8°
